RH
68 69 75 72 67 65 60 59 67 72 73 72 71 50 51 57 56 55 59 54 50 56
75 79 79 70 71 69 67 57 57 61 66 68 68 70 61 49 51 52 59 59 57 50
62 68 69 71 73 70 69 66 62 60 54 56 62 64 63 63 57 49 51 52 49 53
49 56 52 54 60 67 69 70 71 68 57 56 51 51 53 56 55 61 55 51 52 54
15 18 23 27 31 38 43 52 66 73 71 66 67 68 55 53 54 52 51 49 51 50
23 22 21 22 18 22 27 33 44 55 57 59 60 67 70 70 68 64 55 51 51 53
27 23 22 22 20 18 18 17 18 26 33 41 49 54 57 63 64 63 65 68 71 71
32 26 22 20 20 20 20 20 18 18 17 17 21 27 37 47 54 52 53 56 60 63
38 33 27 22 21 20 19 19 19 19 20 20 21 25 24 23 23 30 39 43 45 48
42 36 30 24 22 22 22 21 19 18 18 19 20 22 24 24 23 22 20 19 19 20
42 37 30 25 23 22 22 24 25 25 26 25 23 21 22 23 22 21 20 20 20 21
42 37 29 25 23 22 23 23 24 27 30 31 31 32 32 30 27 25 24 24 24 23
36 30 25 23 24 25 26 26 26 26 28 28 27 28 30 32 31 33 30 29 29 29
34 29 26 27 27 26 27 28 30 30 29 30 31 31 35 35 35 36 37 36 36 36